STARLINK-36300, 68303

Orbit data source: Space-Track

STARLINK-36300, 68303 is a payload satellite owned by SpaceX/Seattle (US) in SSO that was launched on Fri, 20 Mar 2026 UTC via an FALCON 9 launch vehicle from the Air Force Western Test Range (AFWTR). Payload-class satellites include a variety of spacecraft equipped with specific instruments for various scientific and technological missions. These include communications satellites like Starlink; space stations such as the ISS; scientific satellites like the Hubble; Earth observation satellites from companies like Planet Labs, Umbra, and HawkEye 360; GPS; miniature CubeSats for education and research; and military/defense satellites.

Loading next visibility...
Identifier
68303, 2026-057K
Orbit
SSO
Country
Flag of USUS
Related business
Manufacturer
SpaceX/Seattle
Mission
Operational spacecraft
Bus & Motor
STARLINK V2MO, Unknown motor
Mass
575 kg wet, ~530 kg dry
Launch date (UTC)
2026-03-20 (3 months ago)
Launch vehicle
FALCON 9
Launch site
Air Force Western Test Range (AFWTR)
Object type
Payload
Rocket body
Debris
Shape & HBR
Unknown shape, 17.7 m
Radar Cross Section
Large (>1 m²)

Expand to show TLE details & history
Last TLE update: 12 hours ago

TLE from 12 hours ago
0 STARLINK-36300
1 68303U 26057K   26171.36025684  .00017064  00000-0  52929-3 0  9999
2 68303  97.2847 298.0744 0000916 101.9741 258.1604 15.33468624 14397
Epoch: 2026-06-20T08:38Z
TLE epoch observation values (Epoch: 2026-06-20T08:38:46.190Z)
Latitude
-0.0001°
Longitude
-100.19404°
Altitude
468.714 km
Speed
7.632 km/s
True Right ascension
19h 52m 17s
True Declination
0° 00' 00"
Sunlit
Object was in full shadow at epoch
Visualization orbit readout
Latitude
Unknown
Longitude
Unknown
Altitude
Unknown
Speed
Unknown
Apparent Right ascension
Unknown
Apparent Declination
Unknown
Sunlit
N/A
Visualization observer readout
Local Sidereal Time
07:22:53
Azimuth
Unknown
Elevation
Unknown
Doppler factor
Unknown
Orbital elements
Apogee altitude
463.042 km
Perigee altitude
461.789 km
Semi-major axis
6,840.553 km
Eccentricity
0.00009
Inclination
97.2847°
RAAN
298.0744°
Arg. of periapsis
101.9741°
True anomaly
258.15013°
Mean anomaly
258.1604°
Eccentric anomaly
258.15526°
Mean motion
3.83625 °/min
Orbital period
93.84 mins
BSTAR
0.00052929
Loading maneuver chart data...
Computing Atmospheric mass density...
Loading historical data...
Loading historical data...
Loading historical data...
Loading historical data...
Loading historical data...
Loading historical data...
Loading historical data...

Documentation

Showing up to 5 results
|